Simultaneous Nadir Overpasses (SNOs) Predictions

Prediction of SNOs between GOES-17 and AQUA Satellite Orbit:

Table of predicted SNOs for the next 14.0 days since TLE Epoch: 1/20/2024
Index Date Time (GOES-17) GOES-17 Lat,Lon AQUA Lat,Lon Distance(km) Time Diff (sec)
1 01/20/2024 09:04:39 0.01,-104.69 0.25,-105.64 108.49 80
2 01/22/2024 08:46:34 0.01,-104.69 -0.59,-101.87 319.81 80
3 01/22/2024 21:07:08 -0.01,-104.65 -0.46,-106.85 250.19 80
4 01/24/2024 20:54:21 -0.01,-104.65 0.32,-103.08 178.87 80
5 01/25/2024 09:14:46 0.01,-104.69 0.73,-108.02 379.09 80
6 01/27/2024 08:56:38 0.01,-104.69 -0.06,-104.24 50.82 80
7 01/29/2024 08:41:10 0.01,-104.69 -0.91,-100.46 481.31 80
8 01/29/2024 21:01:42 -0.01,-104.66 -0.15,-105.44 88.28 80
9 01/31/2024 20:48:53 -0.01,-104.67 0.65,-101.65 343.11 80
10 02/01/2024 09:09:16 0.01,-104.71 0.42,-106.59 214.07 80
